Fort Myers, FL

7:35 PM EDT on October 13, 2019 (GMT -0400)
Page

Weather History for KFMY - September, 2019

Change the Weather History Date:

Monday, September 16, 2019

  Actual Average Record
Temperature  
Mean Temperature 85 °F 82 °F  
Max Temperature 92 °F 91 °F 95 °F (1942)
Min Temperature 78 °F 75 °F 67 °F (1918)
Degree Days  
Heating Degree Days 0 0  
Month to date heating degree days 0 0  
Since 1 July heating degree days 0 0  
Cooling Degree Days 20 18  
Month to date cooling degree days 319 288  
Year to date cooling degree days 3240 3012  
Growing Degree Days 34 (Base 50)    
Moisture  
Dew Point 74 °F    
Average Humidity 71    
Maximum Humidity 91    
Minimum Humidity 52    
Precipitation  
Precipitation 0.00 in 0.29 in 1.94 in (1939)
Month to date precipitation 2.48 5.00  
Year to date precipitation 48.70 46.07  
Sea Level Pressure  
Sea Level Pressure 29.95 in    
Wind  
Wind Speed 8 mph (NW)    
Max Wind Speed 17 mph    
Max Gust Speed 32 mph    
Visibility 10 miles    
Events Thunderstorm    
T = Trace of Precipitation, MM = Missing Value Source: NWS Daily Summary

Daily Weather History Graph

Daily Weather History Graph

Search for Another Location

Airport or City:

Astronomy

Sep. 16, 2019 Rise Set
Actual Time 7:13 AM EDT 7:30 PM EDT
Civil Twilight 6:50 AM EDT 7:54 PM EDT
Nautical Twilight 6:23 AM EDT 8:21 PM EDT
Astronomical Twilight 5:55 AM EDT 8:48 PM EDT
Moon 9:16 PM EDT (9/16) 9:10 AM EDT (9/16)
Length of Visible Light 13h 03m
Length of Day
12h 17m
Waning Gibbous, 94% of the Moon is Illuminated
Sep 16
Waning Gibbous
Sep 21
Last Quarter
Sep 28
New
Oct 5
First Quarter
Oct 13
Full

Hourly Weather History & Observations

Time (EDT) Temp. Heat Index Dew Point Humidity Pressure Visibility Wind Dir Wind Speed Gust Speed Precip Events Conditions
12:53 AM 79.0 °F - 73.0 °F 82% 29.95 in 10.0 mi West 4.6 mph - N/A   Clear
1:53 AM 79.0 °F - 73.9 °F 84% 29.95 in 10.0 mi Calm Calm - N/A   Clear
2:53 AM 79.0 °F - 73.9 °F 84% 29.95 in 10.0 mi NNW 4.6 mph - N/A   Clear
3:53 AM 79.0 °F - 75.0 °F 88% 29.94 in 10.0 mi Calm Calm - N/A   Clear
4:53 AM 78.1 °F - 73.9 °F 87% 29.93 in 10.0 mi NNW 3.5 mph - N/A   Clear
5:53 AM 78.1 °F - 73.9 °F 87% 29.95 in 10.0 mi NW 4.6 mph - N/A   Clear
6:53 AM 78.1 °F - 73.9 °F 87% 29.96 in 10.0 mi NNW 3.5 mph - N/A   Clear
7:53 AM 79.0 °F - 73.9 °F 84% 29.98 in 10.0 mi North 9.2 mph - N/A   Clear
8:53 AM 81.0 °F 86.2 °F 73.9 °F 79% 30.00 in 10.0 mi North 8.1 mph 17.3 mph N/A   Clear
9:53 AM 84.9 °F 92.1 °F 73.9 °F 69% 30.00 in 10.0 mi NNW 6.9 mph - N/A   Clear
10:53 AM 86.0 °F 93.0 °F 73.0 °F 65% 30.00 in 10.0 mi NNW 8.1 mph - N/A   Partly Cloudy
11:53 AM 88.0 °F 95.6 °F 73.0 °F 61% 29.98 in 10.0 mi WNW 6.9 mph - N/A   Clear
12:53 PM 91.0 °F 97.6 °F 71.1 °F 52% 29.98 in 10.0 mi NW 8.1 mph - N/A   Clear
1:53 PM 91.9 °F 99.5 °F 72.0 °F 52% 29.96 in 10.0 mi NNW 6.9 mph - N/A   Clear
2:53 PM 91.9 °F 101.3 °F 73.9 °F 55% 29.94 in 10.0 mi WNW 10.4 mph - N/A   Partly Cloudy
3:53 PM 90.0 °F 99.0 °F 73.9 °F 59% 29.93 in 10.0 mi WNW 15.0 mph - N/A   Mostly Cloudy
4:07 PM 91.0 °F 100.4 °F 73.9 °F 57% 29.91 in 10.0 mi WNW 13.8 mph - N/A Thunderstorm Scattered Clouds
4:21 PM 90.0 °F 99.0 °F 73.9 °F 59% 29.91 in 10.0 mi WNW 9.2 mph - N/A   Scattered Clouds
4:53 PM 89.1 °F 98.0 °F 73.9 °F 61% 29.91 in 10.0 mi WNW 15.0 mph - N/A   Clear
5:53 PM 88.0 °F 93.8 °F 71.1 °F 57% 29.92 in 10.0 mi WNW 11.5 mph - N/A   Clear
6:53 PM 86.0 °F 92.2 °F 72.0 °F 63% 29.92 in 10.0 mi WNW 12.7 mph - N/A   Clear
7:53 PM 84.0 °F 91.2 °F 73.9 °F 72% 29.93 in 10.0 mi WNW 10.4 mph - N/A   Clear
8:53 PM 84.0 °F 91.2 °F 73.9 °F 72% 29.94 in 10.0 mi NW 9.2 mph - N/A   Clear
9:53 PM 82.9 °F 90.2 °F 75.0 °F 77% 29.95 in 10.0 mi NW 11.5 mph - N/A   Clear
10:53 PM 82.0 °F 88.6 °F 75.0 °F 79% 29.95 in 10.0 mi NNW 10.4 mph - N/A   Clear
11:53 PM 82.0 °F 88.6 °F 75.0 °F 79% 29.94 in 10.0 mi North 4.6 mph - N/A   Scattered Clouds